Hourly Data Report for October 16, 2014

All times are specified in Local Standard Time (LST). Add 1 hour to adjust for Daylight Saving Time where and when it is observed.

IQALUIT CLIMATE
NUNAVUT

63°44'50.000" N
68°32'40.000" W
33.50 m
2402592
71321
XFB

Download Data

Hourly Data (October 2014)
Hourly Data Report for October 16, 2014
Temp Definition
°C
Dew Point Temp Definition
°C
Rel Hum Definition
%
Wind Dir Definition
10's deg

Wind Spd Definition
km/h
Visibility Definition
km
Stn Press Definition
kPa
Hmdx Definition


Wind Chill Definition


Weather Definition


TIME
00:00 -3.1 -6.1 79 8 3   101.05   -4 LegendNANA
01:00 -2.5 -6.1 76 25 11   101.06   -7 LegendNANA
02:00 -2.2 -6.3 73 27 9   101.12   -6 LegendNANA
03:00 -3.7 -6.7 79 4 1   101.13   -4 LegendNANA
04:00 -4.1 -7.3 78 35 9   101.17   -8 LegendNANA
05:00 -4.7 -7.3 82 7 3   101.19   -6 LegendNANA
06:00 -5.1 -7.7 82 5 8   101.20   -9 LegendNANA
07:00 -5.1 -8.0 80 4 8   101.21   -9 LegendNANA
08:00 -3.4 -6.8 78 9 2   101.23   -4 LegendNANA
09:00 -1.8 -5.7 74 12 3   101.19   -3 LegendNANA
10:00 -1.6 -5.9 73 9 7   101.16   -4 LegendNANA
11:00 -1.3 -6.0 71 14 9   101.13   -5 LegendNANA
12:00 -2.0 -3.5 90 14 13   101.09   -6 LegendNANA
13:00 -1.9 -2.7 94 15 16   101.04   -7 LegendNANA
14:00 -2.0 -2.8 95 13 18   100.97   -7 LegendNANA
15:00 -1.8 -2.5 95 13 17   100.90   -7 LegendNANA
16:00 -1.5 -2.1 96 14 21   100.86   -7 LegendNANA
17:00 -1.3 -1.8 96 14 26   100.83   -8 LegendNANA
18:00 -0.9 -1.4 97 14 28   100.76   -7 LegendNANA
19:00 -0.8 -1.1 98 14 26   100.71   -7 LegendNANA
20:00 -0.5 -0.8 98 14 21   100.66   -6 LegendNANA
21:00 -0.3 -0.5 99 15 19   100.60   -5 LegendNANA
22:00 -0.1 -0.3 99 15 18   100.57   -5 LegendNANA
23:00 -0.2 -0.3 99 16 13   100.53   -4 LegendNANA

Notes on Data Quality.

Legend

  • E = Estimated
  • M = Missing
  • NA = Not Available
  • ‡ = Partner data that is not subject to review by the National Climate Archives
Date modified: